CAPE
0 0 0 0 0 0 0 0 90 78 120 117 32 0 0 0 0 0 0 0 0 1 209 202 202 241 174 157 82 12 2 8 18 17 11 5 4 6 11 26 14 10 4
0 0 0 1 0 0 0 0 0 47 41 7 0 0 0 0 0 0 0 0 0 0 92 112 230 156 107 43 19 11 5 4 5 6 7 5 6 16 24 9 8 19 12
0 0 0 0 0 1 2 0 0 0 3 3 1 0 0 0 0 3 0 0 0 0 37 253 292 142 86 45 31 9 13 8 13 10 11 7 13 10 6 19 19 10 4
0 0 0 0 0 0 1 2 0 1 2 6 6 1 1 0 0 0 0 0 0 4 10 156 416 289 129 29 31 9 9 9 10 18 15 12 10 26 22 14 3 4 7
0 0 0 0 0 1 0 0 0 2 1 3 5 8 2 3 1 0 0 0 0 21 89 89 82 113 134 85 81 38 13 15 16 14 16 26 22 18 4 5 7 9 6
0 0 0 0 0 1 0 0 0 2 1 1 6 8 3 0 5 1 0 0 0 1 62 75 81 88 77 209 111 94 27 23 31 14 31 24 11 11 17 13 7 9 7
0 0 0 0 0 1 0 1 0 0 3 5 2 0 0 1 4 5 7 5 4 7 28 96 197 208 100 134 195 151 78 25 32 32 36 26 18 13 22 8 6 8 5
0 0 0 0 0 0 0 2 1 2 3 6 7 5 10 4 4 4 3 4 10 5 1 30 100 110 12 20 49 139 130 56 36 45 46 26 12 17 30 12 11 7 1
0 0 0 0 0 0 13 4 14 15 28 12 23 18 18 9 1 1 2 0 0 2 2 1 5 5 0 0 11 58 62 70 58 52 37 8 3 21 29 16 13 12 5
0 0 0 0 0 0 10 18 30 35 52 36 24 21 0 0 23 0 1 1 0 1 2 2 0 0 0 0 1 0 5 39 68 42 28 10 3 9 20 18 15 18 12
0 0 0 0 0 0 4 14 21 61 52 51 52 16 15 0 0 0 10 0 0 0 1 3 1 1 0 1 0 0 0 14 65 39 20 26 19 14 26 30 18 16 15
0 0 0 0 0 0 0 0 11 35 74 59 50 38 2 3 0 0 0 0 1 0 1 0 1 0 0 0 0 0 0 22 30 30 80 58 57 40 37 36 31 20 16
0 0 0 0 0 0 0 0 0 9 4 19 44 31 30 8 0 4 31 0 0 0 0 0 0 0 0 0 0 0 0 5 11 47 77 47 6 15 31 25 22 8 5
0 0 0 1 2 0 2 0 0 1 6 4 4 9 27 29 0 1 0 0 0 0 1 0 1 2 0 0 0 0 0 2 9 37 41 31 13 22 6 0 0 0 0
0 3 2 6 6 5 4 1 2 1 6 38 24 17 10 30 7 0 2 0 66 21 2 0 0 2 3 2 1 0 0 1 2 1 0 0 0 0 0 0 0 0 0
0 0 1 3 2 0 1 4 3 0 1 22 56 38 21 16 3 0 6 2 19 98 24 0 1 2 3 1 2 0 0 0 1 1 0 0 0 0 0 0 0 0 0
0 0 0 1 1 0 3 1 2 4 3 3 9 47 37 26 20 0 0 0 2 0 53 1 1 2 2 2 1 0 0 0 0 2 0 0 0 0 0 0 0 0 0
0 0 1 1 1 1 1 3 2 1 0 2 4 10 20 25 61 2 0 0 0 0 0 0 1 2 1 1 0 0 0 0 0 1 0 0 0 0 0 0 0 0 0
1 1 2 2 2 1 0 1 3 2 3 7 16 12 22 34 42 17 1 0 0 0 0 0 1 0 1 0 0 0 0 0 0 0 1 0 0 0 0 0 0 0 1
1 1 2 1 2 2 2 2 3 2 4 0 0 2 5 33 52 5 0 0 1 1 0 0 0 0 0 0 0 0 0 0 0 0 0 0 0 0 0 0 0 0 0
1 1 1 1 2 3 5 3 1 0 0 0 0 0 9 6 5 0 0 0 0 1 0 0 0 0 0 0 0 0 0 0 0 0 0 0 0 0 0 0 0 0 0
1 2 1 2 2 4 5 3 0 0 0 0 0 0 0 0 0 0 0 0 0 0 0 0 0 0 0 0 0 0 0 0 0 0 0 0 0 0 0 0 0 0 0
1 2 2 2 2 4 7 6 1 0 0 0 0 0 0 0 0 0 2 2 2 0 0 0 0 0 0 0 0 0 0 0 0 0 0 0 0 0 0 0 0 0 0
2 1 1 1 2 4 5 3 1 0 0 0 0 0 0 0 0 0 0 0 0 0 0 0 0 0 0 0 0 0 0 0 0 0 0 0 0 0 0 0 0 0 0
0 0 0 0 1 3 3 1 0 0 0 0 0 0 0 0 3 1 0 0 0 0 1 0 0 0 0 0 0 0 0 0 0 0 0 0 0 0 0 0 0 0 0
0 0 0 0 0 0 2 0 0 0 0 0 0 0 0 0 0 0 0 0 0 0 0 0 0 0 0 0 0 0 0 0 0 0 0 0 0 0 0 0 0 0 0
CIN
-0 -0 -0 -0 -0 -0 -0 -0 -50 -56 -28 -20 -33 -0 -0 -0 -0 -0 -0 -0 -0 -7 -8 -7 -1 -15 -21 -22 -1 -0 -0 -0 -0 -2 -1 -0 -0 -0 -0 -2 -5 -8 -7
-0 -0 -0 -0 -0 -0 -0 -0 -0 -36 -10 -20 -0 -0 -0 -0 -0 -0 -0 -0 -0 -0 -24 -4 -3 -35 -13 -6 -34 -0 -0 -0 -0 -0 -0 -0 -0 -0 -2 -1 -4 -3 -1
-0 -0 -0 -0 -0 -0 -0 -0 -0 -0 -0 -0 -0 -0 -0 -0 -0 -0 -0 -0 -0 -0 -75 -9 -1 -0 -0 -1 -28 -5 -0 -0 -0 -0 -0 -0 -0 -0 -0 -1 -1 -1 -0
-0 -0 -0 -0 -0 -0 -0 -0 -0 -0 -0 -0 -0 -0 -0 -0 -0 -0 -0 -0 -13 -103 -45 -28 -2 -0 -0 -7 -8 -2 -0 -0 -0 -0 -0 -0 -0 -1 -1 -0 -0 -0 -0
-0 -0 -0 -0 -0 -0 -0 -0 -0 -0 -0 -0 -0 -0 -0 -0 -0 -0 -0 -0 -0 -46 -43 -34 -11 -9 -12 -2 -0 -11 -0 -0 -0 -0 -0 -0 -0 -0 -0 -0 -0 -0 -0
-0 -0 -0 -0 -0 -0 -0 -0 -0 -0 -0 -0 -0 -3 -0 -0 -0 -0 -0 -0 -0 -0 -9 -34 -38 -26 -12 -0 -0 -0 -2 -0 -0 -0 -0 -0 -0 -0 -0 -0 -0 -0 -0
-0 -0 -0 -0 -0 -0 -0 -0 -0 -0 -0 -0 -4 -0 -0 -0 -0 -0 -0 -0 -0 -0 -25 -16 -12 -15 -10 -2 -0 -0 -4 -9 -0 -0 -0 -0 -0 -0 -0 -0 -0 -0 -0
-0 -0 -0 -0 -0 -0 -0 -0 -0 -1 -0 -0 -0 -8 -0 -0 -0 -0 -0 -0 -0 -0 -4 -23 -11 -16 -47 -12 -11 -0 -0 -0 -11 -2 -0 -0 -0 -0 -0 -0 -0 -0 -0
-0 -0 -0 -0 -0 -0 -0 -0 -3 -2 -2 -14 -0 -0 -3 -0 -0 -0 -0 -0 -0 -0 -1 -0 -11 -30 -26 -0 -16 -15 -0 -3 -0 -0 -0 -0 -0 -0 -0 -0 -0 -0 -0
-0 -0 -0 -0 -0 -2 -8 -0 -2 -5 -0 -1 -15 -16 -0 -1 -4 -0 -0 -0 -0 -0 -0 -0 -0 -0 -0 -0 -5 -3 -15 -1 -2 -0 -0 -0 -0 -0 -0 -0 -0 -0 -0
-0 -0 -0 -0 -0 -0 -26 -10 -2 -0 -0 -0 -0 -18 -24 -0 -0 -0 -24 -0 -0 -0 -0 -0 -0 -0 -0 -0 -0 -0 -0 -13 -0 -0 -0 -0 -0 -0 -0 -0 -0 -0 -0
-0 -0 -0 -0 -0 -0 -0 -0 -8 -0 -0 -1 -4 -2 -21 -24 -1 -0 -0 -0 -21 -0 -0 -0 -0 -0 -0 -0 -0 -0 -0 -18 -0 -0 -0 -0 -0 -0 -1 -0 -0 -0 -0
-0 -0 -0 -0 -0 -0 -0 -0 -0 -7 -0 -0 -0 -4 -2 -14 -0 -28 -4 -0 -0 -0 -0 -0 -0 -0 -0 -0 -0 -0 -0 -21 -31 -0 -0 -0 -5 -0 -0 -0 -0 -0 -0
-0 -0 -0 -0 -0 -0 -0 -0 -0 -0 -5 -0 -1 -2 -2 -2 -0 -43 -0 -2 -0 -0 -0 -0 -0 -0 -0 -0 -0 -0 -0 -0 -0 -0 -0 -0 -0 -0 -1 -0 -0 -0 -0
-0 -0 -0 -0 -0 -0 -0 -0 -0 -0 -6 -0 -0 -0 -2 -0 -62 -0 -46 -0 -0 -0 -0 -0 -0 -0 -0 -0 -0 -0 -0 -0 -0 -0 -0 -0 -0 -0 -0 -0 -0 -0 -0
-0 -0 -0 -0 -0 -0 -0 -0 -0 -0 -4 -0 -0 -0 -7 -4 -9 -0 -101 -42 -8 -0 -0 -0 -0 -0 -0 -0 -0 -0 -0 -0 -0 -0 -0 -0 -0 -0 -0 -0 -0 -0 -0
-0 -0 -0 -0 -0 -0 -0 -0 -0 -0 -0 -0 -0 -0 -0 -12 -0 -10 -0 -0 -0 -0 -0 -0 -0 -0 -0 -0 -0 -0 -0 -0 -0 -0 -0 -0 -0 -0 -0 -0 -0 -0 -0
-0 -0 -0 -0 -0 -0 -0 -0 -0 -0 -0 -0 -0 -3 -0 -4 -23 -13 -0 -0 -0 -0 -0 -0 -0 -0 -0 -0 -0 -0 -0 -0 -0 -0 -0 -0 -0 -0 -0 -0 -0 -0 -0
-0 -0 -0 -0 -0 -0 -0 -0 -4 -50 -69 -39 -1 -0 -1 -5 -2 -6 -2 -0 -0 -0 -0 -0 -0 -0 -0 -0 -0 -0 -0 -0 -0 -0 -0 -0 -0 -0 -0 -0 -0 -0 -0
-0 -0 -0 -0 -0 -0 -0 -0 -25 -58 -71 -0 -4 -9 -8 -2 -0 -20 -0 -0 -0 -0 -0 -0 -0 -0 -0 -0 -0 -0 -0 -0 -0 -0 -0 -0 -0 -0 -0 -0 -0 -0 -0
-0 -0 -0 -0 -0 -0 -0 -0 -0 -0 -0 -0 -0 -4 -12 -29 -34 -0 -0 -0 -0 -0 -0 -0 -0 -0 -0 -0 -0 -0 -0 -0 -0 -0 -0 -0 -0 -0 -0 -0 -0 -0 -0
-0 -0 -0 -0 -0 -0 -0 -0 -0 -0 -0 -0 -0 -0 -0 -0 -0 -0 -0 -0 -0 -0 -0 -0 -0 -0 -0 -0 -0 -0 -0 -0 -0 -0 -0 -0 -0 -0 -0 -0 -0 -0 -0
-0 -0 -0 -0 -0 -0 -0 -0 -0 -0 -0 -0 -0 -0 -0 -0 -0 -0 -0 -0 -0 -0 -0 -0 -0 -0 -0 -0 -0 -0 -0 -0 -0 -0 -0 -0 -0 -0 -0 -0 -0 -0 -0
-0 -0 -0 -0 -0 -0 -0 -0 -0 -0 -0 -0 -0 -0 -0 -0 -0 -0 -0 -0 -0 -0 -0 -0 -0 -0 -0 -0 -0 -0 -0 -0 -0 -0 -0 -0 -0 -0 -0 -0 -0 -0 -0
-0 -0 -0 -0 -0 -0 -0 -0 -0 -0 -0 -0 -0 -0 -0 -0 -0 -0 -0 -0 -0 -0 -0 -0 -0 -0 -0 -0 -0 -0 -0 -0 -0 -0 -0 -0 -0 -0 -0 -0 -0 -0 -0
-0 -0 -0 -0 -0 -0 -0 -0 -0 -0 -0 -0 -0 -0 -0 -0 -0 -0 -0 -0 -0 -0 -0 -0 -0 -0 -0 -0 -0 -0 -0 -0 -0 -0 -0 -0 -0 -0 -0 -0 -0 -0 -0
Wind_Speed
3 3 2 2 2 2 1 2 1 2 4 6 7 6 6 6 5 4 3 6 8 10 12 11 16 15 13 13 11 10 10 9 10 12 12 11 9 9 8 7 9 7 8
3 3 3 2 2 1 1 1 1 1 1 3 5 5 4 2 3 3 3 5 9 9 11 10 15 16 14 14 12 12 11 11 11 12 12 11 10 10 9 8 7 9 7
4 4 3 2 3 2 3 1 1 0 1 2 3 4 6 7 5 8 7 5 6 10 12 12 17 18 17 15 14 13 13 13 13 13 13 11 11 10 8 9 9 8 6
4 4 3 3 3 2 3 2 2 1 2 3 3 4 5 6 8 8 6 4 5 4 5 10 14 19 19 18 16 17 17 15 14 13 13 13 12 12 10 10 8 8 7
4 3 3 3 3 3 4 3 3 3 3 4 4 4 4 6 7 5 7 7 7 7 5 9 16 16 17 20 21 20 18 16 15 13 12 14 14 12 10 10 9 8 7
5 4 4 4 3 3 4 3 5 4 4 4 4 3 5 5 5 5 7 6 7 7 9 8 8 9 13 17 20 20 16 15 15 14 14 13 12 12 13 11 9 8 7
5 4 3 4 3 4 5 5 4 5 5 3 1 2 3 4 6 5 5 5 8 7 6 10 8 7 8 17 20 18 21 19 16 16 15 13 13 13 13 11 10 9 7
6 5 5 4 4 4 6 5 5 2 4 5 4 1 3 4 5 6 5 4 7 5 4 6 8 11 9 7 7 17 22 23 20 18 15 14 11 13 13 11 10 9 8
7 7 7 6 5 4 5 7 6 7 5 6 9 5 2 6 1 1 3 3 2 3 3 4 5 8 10 8 9 12 17 19 21 21 17 15 14 14 13 12 11 9 8
8 5 5 6 8 5 6 7 6 7 7 5 3 7 2 1 3 2 2 2 1 4 3 2 2 5 7 6 10 11 14 15 20 20 18 17 17 16 14 13 12 11 8
8 8 8 7 7 6 7 8 9 8 6 7 6 2 5 3 1 2 2 1 2 3 3 3 4 5 1 3 6 10 18 20 21 19 18 18 15 15 16 14 13 11 8
7 9 7 7 8 7 8 8 10 10 9 7 6 7 5 5 5 4 2 3 3 2 2 2 2 1 2 4 4 12 18 18 19 19 19 19 18 16 14 14 13 11 8
7 9 9 8 8 8 8 8 9 10 10 8 8 7 8 8 4 7 8 4 4 2 2 2 3 2 2 1 2 10 16 20 22 21 20 16 13 13 15 12 10 9 7
8 10 9 9 10 9 8 7 7 8 9 8 9 8 8 8 6 6 5 6 3 3 2 4 3 4 4 3 5 5 6 14 16 17 17 13 12 11 9 9 7 5 6
7 11 12 10 11 12 11 9 6 8 9 10 10 9 7 6 6 7 7 7 8 6 7 6 3 4 3 4 6 5 5 7 4 6 2 5 12 13 10 6 3 4 8
10 11 12 11 11 12 11 10 9 10 10 8 8 10 9 7 5 6 8 8 8 9 6 3 3 3 4 4 7 5 5 9 8 3 11 9 9 10 7 6 6 8 9
10 11 12 12 12 13 13 10 11 12 12 12 12 11 12 10 7 7 6 7 8 7 9 2 2 2 3 6 4 4 4 5 4 11 11 9 6 6 8 6 7 9 10
10 11 11 10 11 11 11 11 11 10 11 13 13 12 12 8 11 10 8 10 9 9 4 6 3 3 1 3 4 7 4 4 3 7 8 10 9 9 6 7 7 10 9
10 11 11 11 11 10 10 10 11 10 10 10 10 11 10 10 10 7 9 8 7 5 4 4 5 2 2 2 4 4 4 3 2 2 8 8 7 7 6 6 8 9 9
10 10 11 11 10 10 9 9 9 9 9 8 9 8 8 9 10 8 8 8 5 5 5 4 3 3 3 2 3 3 4 2 2 1 2 0 1 3 7 6 8 7 7
8 9 9 9 9 8 7 10 7 5 6 6 5 5 6 7 8 9 7 7 8 5 6 5 4 3 3 4 6 3 3 2 1 1 2 1 2 2 3 3 5 7 9
8 8 8 8 8 6 14 13 5 5 6 5 5 5 6 6 3 4 5 12 11 9 6 5 3 4 5 6 4 5 4 3 3 2 3 3 2 4 3 3 6 9 9
8 8 8 8 9 9 16 14 12 7 8 7 7 6 7 8 9 8 13 13 10 8 7 4 4 4 5 7 9 5 3 3 2 3 3 2 2 3 2 3 5 7 10
7 7 8 8 7 8 14 14 15 9 9 10 9 9 8 8 9 10 10 11 9 9 6 4 5 4 4 7 7 5 7 6 5 3 0 2 1 2 1 2 4 7 10
5 6 7 7 7 8 13 14 11 8 10 10 8 8 8 9 12 13 10 10 10 10 13 16 15 12 15 15 11 8 5 5 2 2 2 0 1 2 2 2 1 3 5
4 5 7 7 10 7 12 13 9 6 8 7 9 10 15 10 12 11 9 9 11 7 9 11 9 12 12 11 9 4 6 3 3 2 3 2 1 1 1 1 2 2 2
Wind_Direction
11 349 353 5 20 348 352 341 301 263 243 222 216 214 222 221 227 234 233 230 256 253 247 235 208 184 184 188 199 197 182 184 168 141 164 161 147 160 162 138 110 104 74
357 346 338 322 313 327 350 339 335 9 287 209 191 201 211 230 292 273 254 238 227 241 239 241 207 198 195 200 197 197 186 182 185 174 171 171 161 148 152 132 111 99 110
354 340 322 293 290 323 312 259 242 138 148 184 201 204 207 209 202 256 247 220 243 223 217 227 201 199 191 196 187 186 184 179 182 179 173 169 166 168 155 130 128 123 140
357 341 325 305 295 275 287 292 271 303 267 242 223 218 231 224 224 234 251 252 247 251 225 239 204 203 193 185 188 188 186 186 179 189 182 175 169 159 158 158 164 162 161
336 320 306 300 289 252 245 246 238 237 235 250 263 247 230 233 231 243 253 267 264 254 234 226 206 199 186 190 192 192 184 184 189 182 187 178 170 173 173 175 166 169 161
321 320 314 305 293 258 245 232 233 231 241 243 244 243 248 247 248 246 259 266 265 271 260 226 192 196 208 202 201 192 182 176 185 185 188 181 181 181 183 171 174 174 164
310 301 296 307 303 273 269 247 236 230 219 200 134 270 263 250 241 243 249 257 254 249 254 254 202 189 196 210 207 180 179 172 191 189 185 183 182 189 176 182 181 176 176
329 316 309 306 298 276 257 244 220 215 226 196 197 119 261 216 220 223 229 231 248 232 233 241 222 193 188 184 187 197 186 178 182 186 181 182 192 203 182 189 188 183 197
318 308 294 292 283 266 256 254 227 224 228 199 217 223 190 236 214 127 227 240 223 235 205 219 232 209 196 183 184 185 191 186 177 181 181 184 190 209 190 202 191 199 208
326 325 311 300 287 272 259 261 238 217 230 228 210 237 246 190 221 237 199 231 278 255 221 197 177 253 209 172 179 169 176 180 184 179 182 196 192 196 196 200 206 201 215
323 319 319 313 288 275 266 260 260 245 223 233 219 178 201 188 169 216 280 201 245 227 246 229 200 172 63 229 188 175 170 172 178 182 188 196 191 199 201 205 211 207 213
314 314 308 302 294 283 270 264 258 255 251 233 237 234 210 185 192 204 203 209 232 212 223 268 289 181 151 155 245 184 166 181 170 185 197 192 197 204 203 210 207 202 219
309 305 307 305 296 284 274 262 255 250 253 256 243 248 237 231 173 208 227 206 215 187 208 205 217 220 143 137 236 163 171 184 183 197 198 192 190 210 218 215 192 199 221
303 305 304 302 294 289 285 268 253 249 237 240 246 249 265 229 221 193 199 199 196 223 232 243 200 212 172 168 121 52 195 189 188 203 197 192 197 211 182 172 177 201 236
302 308 310 304 303 298 287 275 258 254 247 241 236 230 242 254 212 225 215 218 225 215 219 206 195 197 171 160 148 137 103 111 156 133 96 247 126 132 136 140 164 221 246
314 309 305 298 295 292 286 276 260 255 252 249 244 238 228 226 224 222 224 226 226 234 236 177 180 156 159 152 157 144 139 133 141 151 118 114 126 128 137 174 203 232 241
315 307 303 297 290 288 278 269 263 256 247 249 242 243 243 223 213 206 217 223 224 216 227 140 119 140 139 156 126 120 125 104 130 156 143 156 166 176 193 200 225 242 242
316 308 302 294 288 282 272 265 251 242 235 240 240 234 239 234 220 205 201 213 218 210 186 162 131 139 118 137 130 127 121 100 114 167 156 195 196 207 207 220 243 250 234
319 317 311 296 292 284 271 264 250 247 236 235 240 234 233 225 221 206 205 204 202 177 133 133 145 132 97 128 89 64 95 99 145 185 201 208 208 217 225 236 249 249 234
324 321 313 306 303 306 293 280 266 242 236 237 238 235 237 227 218 198 200 192 173 158 126 113 104 120 126 95 103 140 122 104 158 162 129 233 254 274 227 237 245 250 262
329 325 329 331 336 327 324 314 275 228 239 240 224 242 231 207 197 190 181 167 165 166 147 135 134 137 140 147 179 142 114 128 121 99 197 202 220 230 232 250 276 273 258
343 340 350 340 344 345 359 10 35 55 47 57 52 42 39 44 93 151 161 168 168 157 149 136 147 156 150 148 128 149 124 145 171 184 179 199 233 234 240 235 247 250 243
348 352 352 349 1 5 22 33 52 61 71 52 51 48 54 37 48 73 84 85 93 105 107 111 149 146 151 166 141 133 137 124 140 144 189 190 201 252 232 231 242 251 256
351 356 348 359 8 15 30 49 57 55 63 54 49 52 61 59 66 76 76 69 57 54 47 71 85 98 102 130 140 146 144 111 97 108 143 189 163 250 302 264 283 275 274
354 358 350 360 14 30 46 59 61 63 67 61 61 63 68 75 86 93 90 94 83 72 80 92 97 117 127 126 127 121 133 137 120 149 167 221 72 314 309 304 285 257 269
358 2 0 0 23 28 54 67 70 81 80 75 64 64 70 78 83 92 98 107 93 80 87 81 79 75 73 84 80 78 138 123 120 140 151 175 171 327 290 175 249 235 253